Volver al catálogo

CZ-6A DEB

ActivoSSO
NORAD 55551·DEBRIS·🇨🇳 China

Lanzado Nov 11, 2022 desde Taiyuan Satellite Launch Center

Loading…

Próximos Pases (próximas 24 horas)

TLE

ActualizadoSource: Space-Track

Época: Sep 14, 2026, 20:44 UTC

1 55551U 22151YZ  26257.86420326  .00002979  00000-0  70320-3 0  9997
2 55551  98.6035 307.7685 0104774  61.6433 299.5279 14.51666956195979

Sigue CZ-6A DEB en tiempo real con AllMySat

Download on the App Store